SCOUT X-4 R/B, 1739

Orbit data source: Space-Track

SCOUT X-4 R/B, 1739 is space debris in LEO originally from a launch on Fri, 19 Nov 1965 UTC launched from the Wallops Island (WLPIS). Debris objects in space refer to the collection of defunct objects orbiting the Earth. Examples of debris include non-operational satellites, rocket bodies, and fragments generated from explosions, collisions, or faulty payload assembly.

Loading next visibility...
Identifier
1739, 1965-093B
Orbit
LEO
Country
Flag of USUS
Related business
Manufacturer
ABL
Mission
Spacecraft
Bus & Motor
ALTAIR, Unknown motor
Mass
33 kg wet, 33 kg dry
Launch date (UTC)
1965-11-19 (60 years ago)
Launch vehicle
Unknown
Launch site
Wallops Island (WLPIS)
Object type
Payload
Rocket body
Debris
Shape & HBR
Unknown
Radar Cross Section
Medium (>0.1 m² and <1 m²)

Expand to show TLE details & history
Last TLE update: 7 hours ago

TLE from 7 hours ago
0 SCOUT X-4 R/B
1  1739U 65093B   26118.83415191  .00000364  00000-0  11748-3 0  9990
2  1739  59.7052  26.8443 0074505 208.3156 151.3830 14.55189400163146
Epoch: 2026-04-28T20:01Z
TLE epoch observation values (Epoch: 2026-04-28T20:01:10.725Z)
Latitude
-0.00001°
Longitude
-130.25417°
Altitude
756.715 km
Speed
7.452 km/s
True Right ascension
01h 47m 22s
True Declination
0° 00' 00"
Sunlit
Object was in daylight at epoch
Visualization orbit readout
Latitude
Unknown
Longitude
Unknown
Altitude
Unknown
Speed
Unknown
Apparent Right ascension
Unknown
Apparent Declination
Unknown
Sunlit
N/A
Visualization observer readout
Local Sidereal Time
10:18:24
Azimuth
Unknown
Elevation
Unknown
Doppler factor
Unknown
Orbital elements
Apogee altitude
760.814 km
Perigee altitude
655.224 km
Semi-major axis
7,086.156 km
Eccentricity
0.00745
Inclination
59.7052°
RAAN
26.8443°
Arg. of periapsis
208.3156°
True anomaly
151.78859°
Mean anomaly
151.383°
Eccentric anomaly
151.58613°
Mean motion
3.63854 °/min
Orbital period
98.94 mins
BSTAR
0.00011748
Loading maneuver chart data...
Computing Atmospheric mass density...
Loading historical data...
Loading historical data...
Loading historical data...
Loading historical data...
Loading historical data...
Loading historical data...
Loading historical data...
Other satellites on launch #93 in the year 1965 (1965-11-19 UTC)

Documentation

Showing up to 5 results
|